[[{"header":{"parameterUnit":"m.s-1","parameterCategory":1,"la1":30.2991,"la2":30.254,"lo1":-89.0895,"lo2":-89.0444,"dy":0.0017,"dx":0.0017,"nx":28,"ny":28,"refTime":"2026-01-04T09:00:00:Z","depth":0,"parameterNumber":2,"parameterNumberName":"U-component_of_WINDS"},"data":[0,0,0,0,0,0,0,0,0,0,0,0,0,0,0,0,0,0,0,0,0,0,0,0,0,0,0,0,0,0,0,0,0,0,0,0,0,0,0,0,0,0,0,0,0,0,0,0,0,0,0,0,0,0,0,0,0,0,-0.7492,-0.7492,0,-0.7524,-0.7525,-0.7525,-0.7504,-0.7503,-0.7502,-0.7501,-0.7537,-0.7539,-0.7541,0,0,0,0,0,0,0,0,0,0,0,0,0,-0.7415,-0.7416,-0.7492,-0.7492,-0.7493,-0.7524,-0.7525,-0.7525,-0.7504,-0.7503,-0.7502,-0.7501,-0.7537,-0.7539,-0.7541,0,0,0,0,0,0,0,0,0,0,0,0,0,-0.7448,-0.7417,-0.7492,-0.7486,-0.7486,-0.7524,-0.7525,-0.7525,-0.7504,-0.7503,-0.7501,-0.75,-0.7536,-0.7539,-0.7541,-0.7588,0,0,-0.755,-0.7551,0,0,0,0,0,0,0,0,-0.7446,-0.7451,-0.7486,-0.7486,-0.7486,-0.7508,-0.7511,-0.7547,-0.7505,-0.7497,-0.7501,-0.7499,-0.7529,-0.7532,-0.7542,-0.759,-0.7592,-0.755,-0.7552,-0.7553,-0.7554,0,0,0,0,0,0,0,-0.7444,-0.7449,-0.7505,-0.7487,-0.7487,-0.7483,-0.7486,-0.7517,-0.7521,-0.7498,-0.7496,-0.75,-0.7529,-0.7539,-0.7542,-0.7592,-0.755,-0.7553,-0.7554,-0.7556,-0.7681,-0.7683,0,0,0,0,0,0,-0.7442,-0.7448,-0.7504,-0.7506,-0.7462,-0.7485,-0.7489,-0.7503,-0.7521,-0.7522,-0.7502,-0.7499,-0.7535,-0.7539,-0.7544,-0.76,-0.7553,-0.7556,-0.7557,-0.768,-0.7682,-0.7683,0,0,0,0,0,0,-0.744,-0.7447,-0.7502,-0.7476,-0.7483,-0.7488,-0.7504,-0.7504,-0.7515,-0.7524,-0.7524,-0.7511,-0.7534,-0.754,-0.7577,-0.7601,-0.7557,-0.756,-0.7678,-0.768,-0.7682,-0.7714,0,0,0,0,0,0,-0.7438,-0.7446,-0.7464,-0.7477,-0.7484,-0.7535,-0.7506,-0.7506,-0.7519,-0.7516,-0.7533,-0.7534,-0.7533,-0.7573,-0.758,-0.7604,-0.7562,-0.7676,-0.7679,-0.7682,-0.7711,-0.7717,-0.7723,0,0,0,0,0,-0.7435,-0.7472,-0.7465,-0.7472,-0.7506,-0.7536,-0.7541,-0.7538,-0.7521,-0.7539,-0.7545,-0.7534,-0.7597,-0.7577,-0.7585,-0.761,-0.7674,-0.7678,-0.7681,-0.7708,-0.7716,-0.7722,0,0,0,0,0,0,-0.7463,-0.7473,-0.7466,-0.7507,-0.7521,-0.7533,-0.7555,-0.7546,-0.7566,-0.7563,-0.7559,-0.7563,-0.7603,-0.761,-0.7588,-0.7657,-0.7633,-0.7639,-0.7651,-0.7658,-0.7664,-0.7662,-0.7564,0,0,0,0,0,-0.7473,-0.7496,-0.7504,-0.754,-0.7547,-0.755,-0.7563,-0.756,-0.7574,-0.758,-0.7589,-0.7604,-0.7627,-0.7643,-0.7665,-0.7711,-0.7715,-0.7733,-0.7738,-0.7743,-0.7748,-0.7774,-0.7782,-0.7695,-0.7695,-0.7695,0,0,-0.7496,-0.7504,-0.7519,-0.7546,-0.7556,-0.7581,-0.7555,-0.7582,-0.7601,-0.7585,-0.7621,-0.7627,-0.7644,-0.7687,-0.7706,-0.7694,-0.7773,-0.7748,-0.7752,-0.7754,-0.7779,-0.7787,-0.7794,-0.7698,-0.7698,-0.7697,0,0,-0.755,-0.7558,-0.7589,-0.76,-0.7615,-0.7616,-0.7624,-0.7637,-0.7641,-0.7676,-0.7665,-0.7687,-0.7727,-0.774,-0.7752,-0.781,-0.7801,-0.7817,-0.7849,-0.7874,-0.7881,-0.7887,-0.7909,-0.7916,-0.7822,-0.7822,-0.7822,0,-0.7576,-0.7612,-0.7607,-0.7634,-0.7647,-0.7632,-0.7664,-0.7675,-0.7697,-0.7707,-0.7693,-0.7743,-0.7754,-0.7799,-0.7813,-0.7823,-0.7832,-0.7816,-0.788,-0.7886,-0.7892,-0.7912,-0.7921,-0.7824,-0.7824,-0.7824,-0.7824,0,-0.7644,-0.7669,-0.7693,-0.7713,-0.7728,-0.7758,-0.7759,-0.7775,-0.777,-0.7773,-0.781,-0.7822,-0.7846,-0.7856,-0.7852,-0.7901,-0.7894,-0.788,-0.7856,-0.7902,-0.7921,-0.7929,-0.7827,-0.7826,-0.7826,-0.7825,0,0,-0.7717,-0.7734,-0.7743,-0.7752,-0.7768,-0.7788,-0.7817,-0.784,-0.7854,-0.787,-0.7895,-0.793,-0.7917,-0.793,-0.7927,-0.7949,-0.7996,-0.7933,-0.7933,-0.7945,-0.8052,-0.8063,-0.8072,-0.7989,-0.7991,-0.7992,-0.8051,0,-0.7773,-0.7823,-0.7819,-0.7867,-0.7891,-0.7877,-0.7903,-0.7916,-0.792,-0.7941,-0.7945,-0.797,-0.7951,-0.7959,-0.798,-0.7986,-0.8017,-0.7981,-0.8014,-0.8015,-0.8011,-0.8082,-0.8093,-0.8148,-0.8058,-0.8059,-0.806,0,-0.7845,-0.7862,-0.7912,-0.7924,-0.7934,-0.7957,-0.7978,-0.7998,-0.8013,-0.8014,-0.8028,-0.8022,-0.8053,-0.8027,-0.807,-0.8046,-0.8059,-0.8064,-0.8066,-0.807,-0.8041,-0.8089,-0.8166,-0.8174,-0.8072,-0.8071,-0.807,0,-0.7894,-0.793,-0.7965,-0.7973,-0.7988,-0.8005,-0.8012,-0.8025,-0.8039,-0.8057,-0.8066,-0.8088,-0.8101,-0.8118,-0.8118,-0.8099,-0.8162,-0.8136,-0.8165,-0.8165,-0.818,-0.8179,-0.8261,-0.8186,-0.8186,-0.8186,-0.8186,0,-0.7957,-0.7989,-0.7987,-0.8009,-0.8044,-0.8039,-0.8074,-0.808,-0.8091,-0.8115,-0.8104,-0.8126,-0.8124,-0.8147,-0.8147,-0.8183,-0.8188,-0.8191,-0.8191,-0.8193,-0.8192,-0.8202,-0.8199,-0.8188,-0.8188,-0.8187,-0.8187,0,-0.8019,-0.8019,-0.8056,-0.8066,-0.807,-0.8095,-0.8105,-0.8126,-0.8128,-0.8158,-0.8165,-0.8169,-0.8195,-0.8196,-0.8226,-0.8226,-0.8271,-0.8266,-0.8266,-0.8265,-0.8294,-0.8292,-0.8386,-0.8398,-0.8315,-0.8315,-0.8316,0,-0.806,-0.8083,-0.8096,-0.8111,-0.8118,-0.8142,-0.8156,-0.8152,-0.8167,-0.8185,-0.8205,-0.8229,-0.8249,-0.8291,-0.8298,-0.8321,-0.8317,-0.8349,-0.8321,-0.8322,-0.8319,-0.8318,-0.8321,-0.8355,-0.8356,-0.8356,-0.8357,0,-0.8133,-0.8131,-0.8151,-0.8171,-0.8188,-0.8204,-0.8219,-0.8231,-0.823,-0.8247,-0.8273,-0.8289,-0.8319,-0.8344,-0.8367,-0.8375,-0.8366,-0.8365,-0.8373,-0.8376,-0.8375,-0.8377,-0.8282,-0.8364,-0.8363,-0.8362,-0.8362,-0.8362,-0.8186,-0.8206,-0.8219,-0.8242,-0.8252,-0.8266,-0.8286,-0.8291,-0.8312,-0.8336,-0.8333,-0.8362,-0.8376,-0.8405,-0.8415,-0.8439,-0.8428,-0.844,-0.8443,-0.8446,-0.845,-0.837,-0.8443,-0.8443,-0.8443,-0.8442,-0.8442,0,-0.8259,-0.8266,-0.8287,-0.8307,-0.8326,-0.8314,-0.833,-0.8346,-0.8372,-0.8385,-0.8405,-0.8435,-0.8459,-0.8467,-0.8491,-0.8508,-0.8505,-0.8515,-0.8514,-0.8516,-0.8457,-0.8448,-0.8517,-0.8517,-0.8517,-0.8517,-0.8517,-0.8517,-0.8299,-0.8334,-0.8334,-0.8374,-0.8381,-0.8409,-0.8419,-0.8432,-0.8443,-0.8477,-0.8496,-0.8501,-0.8513,-0.8537,-0.8559,-0.8561,-0.8571,-0.8583,-0.8583,-0.8528,-0.852,-0.8513,-0.8505,-0.8585,-0.8585,-0.864,-0.8641,-0.8641]},{"header":{"parameterUnit":"m.s-1","parameterCategory":1,"la1":30.2991,"la2":30.254,"lo1":-89.0895,"lo2":-89.0444,"dy":0.0017,"dx":0.0017,"nx":28,"ny":28,"refTime":"2026-01-04T09:00:00:Z","depth":0,"parameterNumber":3,"parameterNumberName":"V-component_of_WINDS"},"data":[0,0,0,0,0,0,0,0,0,0,0,0,0,0,0,0,0,0,0,0,0,0,0,0,0,0,0,0,0,0,0,0,0,0,0,0,0,0,0,0,0,0,0,0,0,0,0,0,0,0,0,0,0,0,0,0,0,0,-5.8082,-5.8084,0,-5.8182,-5.8183,-5.8184,-5.8131,-5.8128,-5.8125,-5.8123,-5.822,-5.8225,-5.823,0,0,0,0,0,0,0,0,0,0,0,0,0,-5.7844,-5.7849,-5.8082,-5.8084,-5.8085,-5.8181,-5.8183,-5.8184,-5.8131,-5.8128,-5.8125,-5.8122,-5.8219,-5.8225,-5.8231,0,0,0,0,0,0,0,0,0,0,0,0,0,-5.7946,-5.785,-5.8082,-5.807,-5.807,-5.8181,-5.8183,-5.8185,-5.8132,-5.8128,-5.8124,-5.812,-5.8217,-5.8224,-5.8232,-5.8359,0,0,-5.8255,-5.8258,0,0,0,0,0,0,0,0,-5.794,-5.7955,-5.8071,-5.8071,-5.8071,-5.814,-5.8135,-5.8243,-5.8133,-5.8108,-5.8123,-5.8118,-5.8197,-5.8206,-5.8233,-5.8364,-5.8368,-5.8256,-5.826,-5.8264,-5.8266,0,0,0,0,0,0,0,-5.7933,-5.795,-5.8121,-5.8072,-5.8073,-5.8059,-5.8069,-5.8155,-5.8174,-5.811,-5.8107,-5.8119,-5.8196,-5.8226,-5.8235,-5.8369,-5.8256,-5.8262,-5.8267,-5.827,-5.8611,-5.8615,0,0,0,0,0,0,-5.7927,-5.7945,-5.8118,-5.8124,-5.7995,-5.8066,-5.8078,-5.8122,-5.8173,-5.8177,-5.8123,-5.8116,-5.8215,-5.8226,-5.8238,-5.8392,-5.8264,-5.8271,-5.8275,-5.8607,-5.8612,-5.8617,0,0,0,0,0,0,-5.7922,-5.7943,-5.8114,-5.8034,-5.8054,-5.8075,-5.8125,-5.8126,-5.8156,-5.8182,-5.8185,-5.815,-5.8212,-5.8227,-5.833,-5.8394,-5.8274,-5.8281,-5.8601,-5.8608,-5.8614,-5.87,0,0,0,0,0,0,-5.7916,-5.7942,-5.7991,-5.8035,-5.8059,-5.8206,-5.8129,-5.8131,-5.8169,-5.8162,-5.8208,-5.8212,-5.821,-5.8319,-5.8338,-5.8403,-5.8287,-5.8596,-5.8604,-5.8612,-5.8691,-5.8708,-5.8723,0,0,0,0,0,-5.7907,-5.801,-5.7994,-5.8015,-5.8121,-5.821,-5.8223,-5.822,-5.8175,-5.8224,-5.8241,-5.821,-5.8384,-5.833,-5.8351,-5.8419,-5.8591,-5.8602,-5.8612,-5.8684,-5.8705,-5.8723,0,0,0,0,0,0,-5.7971,-5.8015,-5.7998,-5.8118,-5.8161,-5.8201,-5.8263,-5.8242,-5.8297,-5.8288,-5.8281,-5.8291,-5.8399,-5.8419,-5.8357,-5.8545,-5.8481,-5.8495,-5.8529,-5.8549,-5.8565,-5.8558,-5.8293,0,0,0,0,0,-5.7999,-5.8068,-5.8103,-5.8205,-5.8228,-5.8242,-5.828,-5.8274,-5.8318,-5.8335,-5.8359,-5.8402,-5.8466,-5.8508,-5.8569,-5.8694,-5.8703,-5.8751,-5.8767,-5.878,-5.8793,-5.8862,-5.8883,-5.865,-5.865,-5.865,0,0,-5.8057,-5.809,-5.8134,-5.8219,-5.8251,-5.8323,-5.8257,-5.8335,-5.8388,-5.8346,-5.8446,-5.8465,-5.8512,-5.8627,-5.8679,-5.8647,-5.8859,-5.8793,-5.8803,-5.8809,-5.8874,-5.8896,-5.8916,-5.8657,-5.8655,-5.8654,0,0,-5.8201,-5.8232,-5.8322,-5.8357,-5.8407,-5.8416,-5.8438,-5.8481,-5.8494,-5.8593,-5.8564,-5.8626,-5.8737,-5.8772,-5.8804,-5.8963,-5.8937,-5.8982,-5.9066,-5.9133,-5.9152,-5.9168,-5.9226,-5.9246,-5.8995,-5.8995,-5.8995,0,-5.8266,-5.8374,-5.837,-5.8452,-5.849,-5.8458,-5.8548,-5.8581,-5.8648,-5.8675,-5.8639,-5.8779,-5.8807,-5.8931,-5.897,-5.8997,-5.9021,-5.8977,-5.915,-5.9166,-5.9181,-5.9236,-5.9258,-5.9,-5.9,-5.8999,-5.8999,0,-5.8453,-5.8528,-5.8595,-5.8663,-5.8709,-5.8794,-5.8803,-5.8849,-5.884,-5.8852,-5.8955,-5.8989,-5.9056,-5.9085,-5.9075,-5.9208,-5.9187,-5.915,-5.9085,-5.9209,-5.926,-5.9281,-5.9008,-5.9006,-5.9004,-5.9003,0,0,-5.8638,-5.8705,-5.873,-5.8761,-5.8815,-5.8873,-5.8957,-5.9025,-5.9065,-5.9113,-5.9183,-5.9278,-5.9246,-5.9283,-5.9277,-5.9336,-5.9461,-5.9292,-5.9293,-5.9323,-5.961,-5.9638,-5.9662,-5.9444,-5.9448,-5.9451,-5.9606,0,-5.8786,-5.8935,-5.8935,-5.9072,-5.9142,-5.9113,-5.9186,-5.9227,-5.9242,-5.9302,-5.9317,-5.9385,-5.9336,-5.9359,-5.9416,-5.9434,-5.9518,-5.9422,-5.9509,-5.9512,-5.95,-5.9689,-5.9718,-5.9863,-5.9626,-5.963,-5.9632,0,-5.8978,-5.9035,-5.918,-5.9226,-5.9255,-5.9322,-5.9385,-5.9443,-5.9489,-5.9495,-5.9537,-5.9523,-5.9608,-5.954,-5.9658,-5.9592,-5.9628,-5.9642,-5.9648,-5.9656,-5.958,-5.9704,-5.9909,-5.9932,-5.9664,-5.9661,-5.9659,0,-5.9101,-5.9213,-5.9315,-5.9342,-5.9398,-5.9445,-5.947,-5.9512,-5.9554,-5.9608,-5.9635,-5.9698,-5.9733,-5.9782,-5.9785,-5.9735,-5.9904,-5.9836,-5.9911,-5.9911,-5.9948,-5.9946,-6.0164,-5.997,-5.997,-5.9969,-5.9969,0,-5.9267,-5.9357,-5.9371,-5.9433,-5.9534,-5.9532,-5.9631,-5.9652,-5.969,-5.9755,-5.9733,-5.9795,-5.9795,-5.9858,-5.986,-5.9958,-5.9973,-5.998,-5.998,-5.9983,-5.9982,-6.0007,-5.9997,-5.9975,-5.9974,-5.9973,-5.9972,0,-5.942,-5.9433,-5.9542,-5.9587,-5.96,-5.9673,-5.971,-5.977,-5.9782,-5.9866,-5.9885,-5.9905,-5.9978,-5.9986,-6.007,-6.0072,-6.019,-6.0178,-6.0176,-6.0174,-6.025,-6.0243,-6.0491,-6.0524,-6.0308,-6.031,-6.0312,0,-5.9525,-5.9595,-5.9648,-5.9691,-5.972,-5.9789,-5.9832,-5.9833,-5.9879,-5.9937,-5.999,-6.0061,-6.0119,-6.0237,-6.0258,-6.0323,-6.0313,-6.0395,-6.0322,-6.0324,-6.0316,-6.0312,-6.0319,-6.041,-6.0412,-6.0414,-6.0416,0,-5.9712,-5.9715,-5.9779,-5.9845,-5.9898,-5.995,-5.9998,-6.0035,-6.0042,-6.0094,-6.017,-6.0214,-6.0302,-6.0373,-6.0437,-6.0462,-6.0441,-6.0439,-6.046,-6.0464,-6.046,-6.0465,-6.0215,-6.0433,-6.0431,-6.043,-6.0429,-6.0428,-5.9845,-5.9906,-5.9953,-6.0025,-6.0063,-6.0109,-6.0168,-6.0189,-6.0253,-6.0326,-6.0322,-6.0406,-6.045,-6.0535,-6.0564,-6.0629,-6.0602,-6.0632,-6.064,-6.0648,-6.0656,-6.0449,-6.0641,-6.064,-6.064,-6.0639,-6.0639,0,-6.0031,-6.0061,-6.0127,-6.0197,-6.0254,-6.0231,-6.0283,-6.0332,-6.0407,-6.0451,-6.0509,-6.0597,-6.0666,-6.0693,-6.0761,-6.0808,-6.08,-6.0826,-6.0823,-6.0829,-6.0676,-6.0652,-6.0832,-6.0832,-6.0831,-6.0831,-6.0831,-6.0831,-6.0135,-6.0237,-6.0246,-6.0367,-6.0395,-6.0479,-6.0512,-6.0554,-6.059,-6.069,-6.0748,-6.0766,-6.0804,-6.0875,-6.0938,-6.0944,-6.097,-6.1001,-6.1003,-6.0859,-6.084,-6.0821,-6.0798,-6.1006,-6.1006,-6.115,-6.1152,-6.1153]}]]